Estherville, IA

6:23 AM CST on February 24, 2018 (GMT -0600)
Estherville Municipal

Weather History for KEST - July, 2013

Change the Weather History Date:

Saturday, July 20, 2013

  Actual Average Record
Temperature  
Mean Temperature 70 °F 72 °F  
Max Temperature 82 °F 83 °F 95 °F (2002)
Min Temperature 58 °F 61 °F 45 °F (1970)
Degree Days  
Heating Degree Days 0 0  
Month to date heating degree days 0 0  
Since 1 June heating degree days 54 41  
Since 1 July heating degree days 0 0  
Cooling Degree Days 5 7  
Month to date cooling degree days 198 140  
Year to date cooling degree days 381 313  
Since 1 June cooling degree days 348 277  
Growing Degree Days 20 (Base 50)    
Moisture  
Dew Point 60 °F    
Average Humidity 69    
Maximum Humidity 90    
Minimum Humidity 47    
Precipitation  
Precipitation 0.00 in 0.12 in 2.23 in (1972)
Month to date precipitation T 2.67  
Sea Level Pressure  
Sea Level Pressure 29.93 in    
Wind  
Wind Speed 3 mph (West)    
Max Wind Speed 7 mph    
Max Gust Speed 10 mph    
Visibility 10 miles    
Events      
T = Trace of Precipitation, MM = Missing Value Source: NWS Daily Summary

Daily Weather History Graph

Daily Weather History Graph

Search for Another Location

Airport or City:

Trip Planner

Search our weather history database for the weather conditions in past years. The results will help you decide how hot, cold, wet, or windy it might be!

Date:

Astronomy

Jul. 20, 2013 Rise Set
Actual Time 5:56 AM CDT 8:53 PM CDT
Civil Twilight 5:22 AM CDT 9:27 PM CDT
Nautical Twilight 4:39 AM CDT 10:10 PM CDT
Astronomical Twilight 3:49 AM CDT 11:00 PM CDT
Moon 6:57 PM CDT (7/20) 3:37 AM CDT (7/20)
Length of Visible Light 16h 04m
Length of Day
14h 56m
Waxing Gibbous, 94% of the Moon is Illuminated
Jul 20
Waxing Gibbous
Jul 22
Full
Jul 29
Last Quarter
Aug 6
New
Aug 14
First Quarter

Hourly Weather History & Observations

Time (CDT) Temp. Heat Index Dew Point Humidity Pressure Visibility Wind Dir Wind Speed Gust Speed Precip Events Conditions
12:52 AM 62.1 °F - 57.0 °F 84% 29.94 in 9.0 mi Calm Calm - N/A   Clear
1:52 AM 61.0 °F - 55.9 °F 83% 29.94 in 10.0 mi SW 4.6 mph - N/A   Clear
2:52 AM 60.1 °F - 55.9 °F 86% 29.92 in 10.0 mi Calm Calm - N/A   Clear
3:52 AM 59.0 °F - 55.0 °F 87% 29.91 in 9.0 mi SW 4.6 mph - N/A   Clear
4:52 AM 59.0 °F - 55.0 °F 87% 29.91 in 9.0 mi West 4.6 mph - N/A   Clear
5:52 AM 60.1 °F - 55.9 °F 86% 29.92 in 9.0 mi WSW 3.5 mph - N/A   Clear
6:52 AM 61.0 °F - 57.0 °F 87% 29.93 in 10.0 mi West 5.8 mph - N/A   Clear
7:52 AM 68.0 °F - 61.0 °F 78% 29.96 in 10.0 mi NW 4.6 mph - N/A   Clear
8:52 AM 71.1 °F - 60.1 °F 68% 29.98 in 10.0 mi NW 8.1 mph - N/A   Clear
9:52 AM 73.0 °F - 59.0 °F 61% 29.97 in 10.0 mi NW 10.4 mph - N/A   Clear
10:52 AM 73.9 °F - 60.1 °F 62% 29.96 in 10.0 mi North 5.8 mph - N/A   Clear
11:52 AM 75.9 °F - 59.0 °F 56% 29.96 in 10.0 mi North 5.8 mph - N/A   Clear
12:52 PM 78.1 °F - 60.1 °F 54% 29.96 in 10.0 mi North 3.5 mph - N/A   Clear
1:52 PM 79.0 °F - 60.1 °F 52% 29.95 in 10.0 mi Calm Calm - N/A   Clear
2:52 PM 80.1 °F 81.1 °F 61.0 °F 52% 29.94 in 10.0 mi Calm Calm - N/A   Clear
3:52 PM 80.1 °F 80.9 °F 60.1 °F 50% 29.94 in 10.0 mi SSE 3.5 mph - N/A   Partly Cloudy
4:52 PM 81.0 °F 81.7 °F 61.0 °F 50% 29.92 in 10.0 mi South 4.6 mph - N/A   Clear
5:52 PM 82.0 °F 82.4 °F 60.1 °F 47% 29.90 in 10.0 mi Calm Calm - N/A   Clear
6:52 PM 80.1 °F 81.1 °F 61.0 °F 52% 29.88 in 10.0 mi Calm Calm - N/A   Clear
7:52 PM 79.0 °F - 62.1 °F 56% 29.89 in 10.0 mi Calm Calm - N/A   Clear
8:52 PM 75.0 °F - 66.0 °F 73% 29.88 in 10.0 mi Calm Calm - N/A   Clear
9:52 PM 71.1 °F - 64.0 °F 78% 29.91 in 10.0 mi Calm Calm - N/A   Clear
10:52 PM 71.1 °F - 63.0 °F 75% 29.92 in 10.0 mi Calm Calm - N/A   Scattered Clouds
11:52 PM 69.1 °F - 62.1 °F 78% 29.92 in 10.0 mi Calm Calm - N/A   Clear